GW4411 Weather Reports


time (UTC)temp
F
wind
direction
speed
knots
gust
knots
rain 1hr
in
rain 24hr
in
rain mn
in
humidity
%
barometer
mb
20260510044505 76 127 0.9 3.5 0.00 0.00 0.00 65 1023.8
20260510043603 76 153 1.7 4.3 0.00 0.00 0.00 64 1023.7
20260510042704 76 162 0.9 4.3 0.00 0.00 0.00 65 1023.7
20260510041804 76 164 0.9 4.3 0.00 0.00 0.00 64 1023.6
20260510040904 76 143 1.7 4.3 0.00 0.00 0.00 65 1023.8
20260510040008 76 117 0.9 4.3 0.00 0.00 0.00 65 1023.8
20260510040006 76 117 0.9 4.3 0.00 0.00 0.00 65 1023.8
20260510035404 76 96 0.9 1.7 0.00 0.00 0.00 64 1023.8
20260510034504 77 124 0.9 1.7 0.00 0.00 0.00 64 1023.8
20260510033604 75 147 0.9 3.5 0.00 0.00 0.00 67 1023.8
20260510032704 75 170 1.7 4.3 0.00 0.00 0.00 67 1023.8
20260510032018 76 177 2.6 4.3 0.00 0.00 0.00 65 1023.9
20260510031804 76 178 1.7 4.3 0.00 0.00 0.00 65 1023.9
20260510031119 76 232 1.7 3.5 0.00 0.00 0.00 66 1023.9
20260510030903 76 233 1.7 3.5 0.00 0.00 0.00 65 1023.9
20260510030005 77 219 1.7 4.3 0.00 0.00 0.00 64 1024.0
20260510025408 77 216 3.5 7.8 0.00 0.00 0.00 64 1024.1
20260510024505 77 196 2.6 5.2 0.00 0.00 0.00 63 1024.3
20260510023604 76 194 2.6 12.2 0.00 0.00 0.00 65 1024.2
20260510022923 77 209 5.2 12.2 0.00 0.00 0.00 64 1024.3
20260510022711 77 107 1.7 4.3 0.00 0.00 0.00 64 1024.3
20260510021809 77 150 1.7 5.2 0.00 0.00 0.00 63 1024.3
20260510020904 78 181 2.6 6.1 0.00 0.00 0.00 62 1024.4
20260510020005 77 191 4.3 10.4 0.00 0.00 0.00 64 1024.4
20260510015618 77 193 3.5 9.6 0.00 0.00 0.00 64 1024.4
20260510014505 77 188 3.5 10.4 0.00 0.00 0.00 64 1024.6
20260510013604 76 171 3.5 8.7 0.00 0.00 0.00 67 1024.9
20260510012704 74 154 2.6 8.7 0.00 0.00 0.00 68 1025.2
20260510011804 74 144 1.7 4.3 0.00 0.00 0.00 67 1025.2
20260510010904 75 177 3.5 6.1 0.00 0.00 0.00 66 1025.5
20260510010009 74 211 3.5 8.7 0.00 0.00 0.00 66 1025.5
20260510005406 75 210 3.5 7.8 0.00 0.00 0.00 66 1025.5
20260510004723 74 199 2.6 5.2 0.00 0.00 0.00 67 1025.7
20260510003606 74 182 2.6 5.2 0.00 0.00 0.00 68 1025.6
20260510002705 74 194 3.5 6.1 0.00 0.00 0.00 67 1025.9
20260510001813 73 191 3.5 9.6 0.00 0.00 0.00 68 1025.9
20260510000903 73 183 3.5 6.1 0.00 0.00 0.00 69 1025.9
20260510000236 72 184 3.5 5.2 0.00 0.00 0.00 70 1025.8
20260509235417 71 184 2.6 6.1 0.00 0.00 0.00 72 1026.0
20260509234721 71 189 3.5 7.8 0.00 0.00 0.00 71 1026.0
20260509233823 69 195 2.6 5.2 0.00 0.00 0.00 72 1026.0
20260509232705 69 194 3.5 5.2 0.00 0.00 0.00 73 1025.9
20260509231804 68 195 3.5 8.7 0.00 0.00 0.00 73 1025.9
20260509231118 68 190 3.5 8.7 0.00 0.00 0.00 73 1025.9
20260509230010 68 185 3.5 7.8 0.00 0.00 0.00 74 1025.5
20260509225404 68 179 4.3 9.6 0.00 0.00 0.00 73 1025.3
20260509224507 68 191 4.3 9.6 0.00 0.00 0.00 73 1025.2
20260509223604 67 192 3.5 8.7 0.00 0.00 0.00 75 1025.2
20260509222704 65 203 2.6 5.2 0.00 0.00 0.00 81 1025.2
20260509221805 63 195 2.6 5.2 0.00 0.00 0.00 85 1025.0
20260509220908 61 208 0.9 3.5 0.00 0.00 0.00 90 1025.0
20260509220006 60 195 0.9 3.5 0.00 0.00 0.00 94 1024.8
20260509215408 58 190 0.9 4.3 0.00 0.00 0.00 95 1024.8
20260509214506 57 0 0.0 0.0 0.00 0.00 0.00 96 1024.7
20260509213823 56 0 0.0 0.0 0.00 0.00 0.00 96 1024.7
20260509212705 55 0 0.0 0.0 0.00 0.00 0.00 96 1024.7
20260509211804 54 0 0.0 0.0 0.00 0.00 0.00 95 1024.6
20260509210908 53 0 0.0 0.0 0.00 0.00 0.00 95 1024.5
20260509210006 53 0 0.0 0.0 0.00 0.00 0.00 95 1024.3
20260509205404 53 0 0.0 0.0 0.00 0.00 0.00 95 1024.3
20260509204506 52 0 0.0 0.0 0.00 0.00 0.00 95 1024.0
20260509203608 52 0 0.0 0.0 0.00 0.00 0.00 95 1023.9
20260509202704 52 0 0.0 0.0 0.00 0.00 0.00 95 1023.9
20260509201808 52 265 0.0 0.9 0.00 0.00 0.00 95 1023.7
20260509200904 52 0 0.0 0.0 0.00 0.00 0.00 94 1023.6
20260509200233 52 0 0.0 0.0 0.00 0.00 0.00 94 1023.6
20260509195405 53 0 0.0 0.0 0.00 0.00 0.00 95 1023.5
20260509194506 53 0 0.0 0.0 0.00 0.00 0.00 95 1023.6
20260509193610 53 0 0.0 0.0 0.00 0.00 0.00 95 1023.6
20260509192724 53 265 0.0 1.7 0.00 0.00 0.00 95 1023.6
20260509191805 53 265 0.0 0.9 0.00 0.00 0.00 95 1023.5
20260509190007 53 265 0.9 3.5 0.00 0.00 0.00 95 1023.2
20260509185408 53 264 0.9 3.5 0.00 0.00 0.00 95 1023.2
20260509184511 53 0 0.0 0.0 0.00 0.00 0.00 95 1023.2
20260509183834 53 0 0.0 0.0 0.00 0.00 0.00 95 1023.1
20260509182709 53 0 0.0 0.0 0.00 0.00 0.00 95 1023.1
20260509181822 53 0 0.0 0.0 0.00 0.00 0.00 95 1023.1
20260509180911 53 0 0.0 0.0 0.00 0.00 0.00 95 1023.0
20260509180016 53 261 0.0 0.9 0.00 0.00 0.00 95 1023.1
20260509175403 53 261 0.0 0.9 0.00 0.00 0.00 95 1023.0
20260509174505 53 0 0.0 0.0 0.00 0.00 0.00 95 1023.1
20260509173615 53 0 0.0 0.0 0.00 0.00 0.00 95 1023.0
20260509172704 52 260 0.9 1.7 0.00 0.00 0.00 95 1023.0
20260509171812 52 0 0.0 0.0 0.00 0.00 0.00 94 1023.1
20260509170910 52 0 0.0 0.0 0.00 0.00 0.00 94 1022.9
20260509165407 52 0 0.0 0.0 0.00 0.00 0.00 94 1023.0
20260509164506 52 0 0.0 0.0 0.00 0.00 0.00 94 1023.0
20260509163609 52 0 0.0 0.0 0.00 0.00 0.00 94 1022.9
20260509162705 52 0 0.0 0.0 0.00 0.00 0.00 94 1023.2
20260509162019 52 0 0.0 0.0 0.00 0.00 0.00 94 1023.0
20260509161118 52 0 0.0 0.0 0.00 0.00 0.00 93 1023.0
20260509160006 52 0 0.0 0.0 0.00 0.00 0.00 93 1023.0
20260509155631 52 0 0.0 0.0 0.00 0.00 0.00 93 1023.0
20260509154511 52 0 0.0 0.0 0.00 0.00 0.00 93 1023.1
20260509153604 52 0 0.0 0.0 0.00 0.00 0.00 93 1023.1
20260509152718 53 0 0.0 0.0 0.00 0.00 0.00 93 1023.1
20260509151804 53 0 0.0 0.0 0.00 0.00 0.00 93 1023.3
20260509150913 53 0 0.0 0.0 0.00 0.00 0.00 93 1023.4
20260509150006 53 0 0.0 0.0 0.00 0.00 0.00 93 1023.3
20260509145404 53 0 0.0 0.0 0.00 0.00 0.00 93 1023.3
20260509144505 54 0 0.0 0.0 0.00 0.00 0.00 93 1023.3
20260509143604 54 0 0.0 0.0 0.00 0.00 0.00 92 1023.2
20260509142922 54 272 0.0 0.9 0.00 0.00 0.00 92 1023.2
20260509141818 54 0 0.0 0.0 0.00 0.00 0.00 92 1023.3
20260509141117 54 0 0.0 0.0 0.00 0.00 0.00 92 1023.3
20260509140010 54 0 0.0 0.0 0.00 0.00 0.00 92 1023.3
20260509135404 54 280 0.0 0.9 0.00 0.00 0.00 92 1023.4
20260509134504 54 289 0.0 0.9 0.00 0.00 0.00 92 1023.5
20260509133604 54 289 0.0 0.9 0.00 0.00 0.00 92 1023.5
20260509132708 54 0 0.0 0.0 0.00 0.00 0.00 91 1023.6
20260509131804 54 0 0.0 0.0 0.00 0.00 0.00 91 1023.8
20260509130905 55 0 0.0 0.0 0.00 0.00 0.00 91 1023.8
20260509130005 55 0 0.0 0.0 0.00 0.00 0.00 91 1023.8
20260509125404 55 0 0.0 0.0 0.00 0.00 0.00 91 1023.8
20260509124505 55 0 0.0 0.0 0.00 0.00 0.00 90 1023.6
20260509123822 55 0 0.0 0.0 0.00 0.00 0.00 90 1023.7
20260509122703 55 289 0.0 0.9 0.00 0.00 0.00 90 1023.8
20260509122023 55 0 0.0 0.0 0.00 0.00 0.00 89 1023.7
20260509120903 56 0 0.0 0.0 0.00 0.00 0.00 89 1023.8
20260509120006 56 0 0.0 0.0 0.00 0.00 0.00 89 1023.7
20260509115403 56 0 0.0 0.0 0.00 0.00 0.00 89 1023.8
20260509114505 56 0 0.0 0.0 0.00 0.00 0.00 88 1023.9
20260509113603 56 0 0.0 0.0 0.00 0.00 0.00 88 1023.9
20260509112704 56 0 0.0 0.0 0.00 0.00 0.00 88 1023.8
20260509111814 56 0 0.0 0.0 0.00 0.00 0.00 87 1023.7
20260509110908 57 0 0.0 0.0 0.00 0.00 0.00 87 1023.9
20260509110005 57 0 0.0 0.0 0.00 0.00 0.00 87 1023.7
20260509105408 57 0 0.0 0.0 0.00 0.00 0.00 87 1023.7
20260509104505 57 0 0.0 0.0 0.00 0.00 0.00 86 1023.7
20260509103608 57 289 0.0 0.9 0.00 0.00 0.00 86 1023.6
20260509102704 58 289 0.0 0.9 0.00 0.00 0.00 86 1023.6
20260509101803 58 0 0.0 0.0 0.00 0.00 0.00 85 1023.6
20260509100904 58 0 0.0 0.0 0.00 0.00 0.00 85 1023.5
20260509100005 58 0 0.0 0.0 0.00 0.00 0.00 84 1023.5
20260509095408 58 289 0.0 0.9 0.00 0.00 0.00 84 1023.5
20260509094730 58 289 0.0 0.9 0.00 0.00 0.00 83 1023.4
20260509093604 59 0 0.0 0.0 0.00 0.00 0.00 83 1023.3
20260509092919 59 289 0.0 0.9 0.00 0.00 0.00 82 1023.2
20260509091808 59 0 0.0 0.0 0.00 0.00 0.00 82 1023.0
20260509090904 60 0 0.0 0.0 0.00 0.00 0.00 82 1022.9
20260509090007 60 289 0.0 0.9 0.00 0.00 0.00 82 1022.8
20260509085403 60 289 0.0 0.9 0.00 0.00 0.00 81 1022.6
20260509084505 61 0 0.0 0.0 0.00 0.00 0.00 80 1022.4
20260509083605 61 290 0.0 0.9 0.00 0.00 0.00 80 1022.3
20260509082018 62 0 0.0 0.0 0.00 0.00 0.00 78 1022.1
20260509080904 63 290 0.0 0.9 0.00 0.00 0.00 77 1022.0
20260509080005 64 296 0.9 1.7 0.00 0.00 0.00 76 1021.9
20260509075622 64 315 0.0 1.7 0.00 0.00 0.00 76 1021.9
20260509074510 65 0 0.0 0.0 0.00 0.00 0.00 75 1021.8
20260509073603 66 0 0.0 0.0 0.00 0.00 0.00 73 1021.8
20260509072918 66 0 0.0 0.0 0.00 0.00 0.00 72 1021.7
20260509071808 68 0 0.0 0.0 0.00 0.00 0.00 71 1021.6
20260509070903 68 0 0.0 0.0 0.00 0.00 0.00 69 1021.7
20260509070007 69 0 0.0 0.0 0.00 0.00 0.00 68 1021.5
20260509065404 70 6 0.0 1.7 0.00 0.00 0.00 67 1021.4
20260509064505 70 38 0.0 3.5 0.00 0.00 0.00 66 1021.3
20260509063604 71 62 0.0 0.9 0.00 0.00 0.00 62 1021.0
20260509062918 71 64 0.0 0.9 0.00 0.00 0.00 60 1020.9
20260509061808 72 0 0.0 0.0 0.00 0.00 0.00 61 1020.9
20260509060904 72 0 0.0 0.0 0.00 0.00 0.00 58 1020.8
20260509060218 72 89 0.0 0.9 0.00 0.00 0.00 57 1020.7
20260509055403 72 103 0.0 1.7 0.00 0.00 0.00 55 1020.7
20260509054504 73 108 0.0 0.9 0.00 0.00 0.00 55 1020.6
20260509053825 74 125 0.0 0.9 0.00 0.00 0.00 55 1020.6
20260509053604 74 125 0.0 0.9 0.00 0.00 0.00 55 1020.6
20260509052704 74 95 0.9 3.5 0.00 0.00 0.00 54 1020.5
20260509051803 75 86 0.9 3.5 0.00 0.00 0.00 52 1020.5
20260509050903 76 108 1.7 5.2 0.00 0.00 0.00 51 1020.5
20260509050009 76 115 1.7 5.2 0.00 0.00 0.00 51 1020.4
20260509045405 77 108 1.7 5.2 0.00 0.00 0.00 51 1020.4